Regional Weather Roundup
Issued by NWS Boston, MA

Home | Current Version | Previous Version | Text Only | Print | Product List | Glossary On
Versions: 1 2 3 4 5 6 7 8 9 10 11 12 13 14 15 16 17 18 19 20 21 22 23 24 25 26 27 28
000
ASUS41 KBOX 192310
RWRBOX

REGIONAL WEATHER ROUNDUP
NATIONAL WEATHER SERVICE TAUNTON MA
700 PM EDT SAT AUG 19 2017

NOTE:  "FAIR" INDICATES FEW OR NO CLOUDS BELOW 12,000 FEET WITH NO
SIGNIFICANT WEATHER AND/OR OBSTRUCTIONS TO VISIBILITY.

MAZALL-200000-
EASTERN MASSACHUSETTS

CITY           SKY/WX    TMP DP  RH WIND       PRES   REMARKS
BOSTON         PTCLDY    66  65  96 NE5       29.80R FOG
BEVERLY        CLEAR     69  66  90 SE7       29.79R
LAWRENCE       CLEAR     85  64  49 W8        29.80R
BEDFORD        PTCLDY    81  61  50 W3        29.78R
BLUE HILL        N/A     81  59  47 W10       29.80S
NORWOOD        CLEAR     84  62  47 W6        29.78R
MARSHFIELD     PTCLDY    72  68  88 CALM      29.79S
PLYMOUTH       MOCLDY    82  65  56 SW6       29.80R
TAUNTON        PTCLDY    82  65  56 SW5       29.79R
NEW BEDFORD    PTCLDY    80  65  59 SW8       29.79S
$$

MAZALL-200000-
CAPE COD AND THE ISLANDS

CITY           SKY/WX    TMP DP  RH WIND       PRES   REMARKS
FALMOUTH       CLEAR     77  68  73 SW9G17    29.82R
HYANNIS        CLEAR     78  69  73 SW9       29.80R
CHATHAM        CLEAR     77  71  82 SW9       29.82R
PROVINCETOWN   CLEAR     74  70  87 SE5       29.80S
NANTUCKET      PTCLDY    71  71 100 SW12      29.83R FOG
MARTHAS VNYRD  PTCLDY    78  64  61 SW7       29.82R
$$

MAZALL-200000-
CENTRAL AND WESTERN MASSACHUSETTS

CITY           SKY/WX    TMP DP  RH WIND       PRES   REMARKS
WORCESTER      CLEAR     78  60  53 W7        29.84S
FITCHBURG      CLEAR     82  63  52 SW3       29.81R
ORANGE         CLEAR     79  64  60 W5        29.81S
SPRINGFIELD    PTCLDY    83  62  50 W9        29.79S
WESTFIELD      CLEAR     82  64  54 SW6       29.80S
NORTH ADAMS    CLOUDY    75  67  76 CALM      29.81F
PITTSFIELD     CLEAR     76  63  64 SW6       29.83F
$$

RIZALL-200000-
RHODE ISLAND

CITY           SKY/WX    TMP DP  RH WIND       PRES   REMARKS
PROVIDENCE     PTCLDY    83  66  56 W8        29.80S
NEWPORT        CLEAR     79  65  62 SW6       29.81S
BLOCK ISLAND   CLEAR     78  64  61 SW13      29.84R
WESTERLY       CLEAR     80  67  64 SW5       29.82S
$$

CTZALL-200000-
CONNECTICUT

CITY           SKY/WX    TMP DP  RH WIND       PRES   REMARKS
BRADLEY INTL   PTCLDY    83  64  52 W7        29.81S
HARTFORD       CLEAR     84  63  49 W7        29.80S
BRIDGEPORT     CLEAR     83  66  56 SW6       29.81S
DANBURY        CLEAR     81  65  58 W3        29.84S
GROTON         CLEAR     78  66  66 SW6       29.81R
NEW HAVEN      PTCLDY    81  66  60 SW7       29.82R
CHESTER        FAIR      81  66  61 CALM      29.83S
MERIDEN        CLEAR     81  65  58 CALM      29.81S
WILLIMANTIC    CLEAR     83  64  52 W5        29.81R
OXFORD         CLEAR     80  66  62 CALM      29.86R
$$

MEZ002-015-021-024-NHZ003-005-008-011-012-014-VTZ005-008-200000-
NORTHERN NEW ENGLAND

CITY           SKY/WX    TMP DP  RH WIND       PRES   REMARKS
PORTLAND ME    MOCLDY    68  64  87 S8        29.78S
BANGOR ME      CLOUDY    71  65  81 S3        29.78S
CONCORD NH     CLEAR     80  62  54 SW8       29.78S
MANCHESTER NH  PTCLDY    82  61  48 VRB7      29.77R
NASHUA NH      PTCLDY    79  68  69 W3        29.80R
PORTSMOUTH NH  MOCLDY    70  65  84 SE7       29.77S
JAFFREY NH     CLEAR     79  64  60 VRB3      29.84S
KEENE NH         N/A    N/A N/A N/A MISG        N/A
BURLINGTON VT  MOCLDY    78  66  66 NW8       29.75S
MT. WASHINGTON FOG       54  54 100 W23G32      N/A  VSB 0
$$

NYZ052-076-200000-
EASTERN NEW YORK

CITY           SKY/WX    TMP DP  RH WIND       PRES   REMARKS
ALBANY         MOCLDY    79  65  62 N6        29.80S
NEW YORK CITY  PTCLDY    86  63  45 W10       29.82R
$$

ANZALL-200000-
MARINE OBSERVATIONS

STATION/POSITION TIME  TEMP    WIND        PRES    VSBY  WAVE
                       AIR SEA DIR/SP/G                  HT/PER
                 (UTC) (F)     (DEG/KT/KT) (MB)    (MI)  (FT/S)
BOSTON BUOY      2250   67 67  130/  6/  8 1008.7          2/ 6
BUZZARDS BAY     2200   72     230/ 14/ 14 1009.7F
NANTUCKET SOUND  2250   72 72  230/ 12/ 16 1009.5R         1/ 6
MASS BAY-STELLWA 2204   67 67  160/  6/  8 1008.0F         2/ 5
ISLE OF SHOALS   2200   65     160/ 14/ 15 1008.3R
S OF BLOCK IS    NOT AVBL
$$

......................KEY.........................
  SKY/WX - SKY CONDITION/PRESENT WEATHER
  TMP    - TEMPERATURE IN FAHRENHEIT
  DWPT   - DEWPOINT IN FAHRENHEIT
  RH     - RELATIVE HUMIDITY IN PERCENT
  WIND   - DIRECTION AND SPEED IN MPH
  PRES   - MEAN SEA LEVEL PRESSURE IN INCHES OF HG
  WCI    - WIND CHILL INDEX
  VSB    - VISIBILITY IN MILES
  HX     - HEAT INDEX
  TC     - TEMPERATURE IN CELSIUS
  VRB    - VARIABLE WIND DIRECTION
  N/A    - NOT AVAILABLE




USA.gov is the U.S. government's official web portal to all federal, state and local government web resources and services.